Time,TemperatureF,DewpointF,PressureIn,WindDirection,WindDirectionDegrees,WindSpeedMPH,WindSpeedGustMPH,Humidity,HourlyPrecipIn,Conditions,Clouds,dailyrainin,SolarRadiationWatts/m^2,SoftwareType,DateUTC
2013-07-22 00:00:00,76.2,65.7,29.93,North,351,0.0,0.0,70,0.00,,---,0.00,0.00,VWS V14.01,2013-07-22 04:00:00,
2013-07-22 00:01:00,76.1,66.0,29.93,North,351,0.0,0.0,71,0.00,,---,0.00,0.00,VWS V14.01,2013-07-22 04:01:00,
2013-07-22 00:06:00,76.0,65.9,29.93,North,351,0.0,0.0,71,0.00,,---,0.00,0.00,VWS V14.01,2013-07-22 04:06:00,
2013-07-22 00:11:00,76.1,66.0,29.93,North,351,0.0,0.0,71,0.00,,---,0.00,0.00,VWS V14.01,2013-07-22 04:11:00,
2013-07-22 00:16:00,76.0,65.9,29.93,North,351,0.0,0.0,71,0.00,,---,0.00,0.00,VWS V14.01,2013-07-22 04:16:00,
2013-07-22 00:21:00,75.7,66.0,29.93,North,351,0.0,0.0,72,0.00,,---,0.00,0.00,VWS V14.01,2013-07-22 04:21:00,
2013-07-22 00:26:00,75.5,65.8,29.93,North,351,0.0,0.0,72,0.00,,---,0.00,0.00,VWS V14.01,2013-07-22 04:26:00,
2013-07-22 00:31:00,75.8,66.1,29.93,North,351,0.0,0.0,72,0.00,,---,0.00,0.00,VWS V14.01,2013-07-22 04:31:00,
2013-07-22 00:36:00,76.2,66.5,29.93,North,351,0.0,0.0,72,0.00,,---,0.00,0.00,VWS V14.01,2013-07-22 04:36:00,
2013-07-22 00:41:00,75.8,66.1,29.93,North,360,0.0,0.0,72,0.00,,---,0.00,0.00,VWS V14.01,2013-07-22 04:41:00,
2013-07-22 00:46:00,75.6,66.3,29.93,North,360,0.0,0.0,73,0.00,,---,0.00,0.00,VWS V14.01,2013-07-22 04:46:00,
2013-07-22 00:51:00,75.2,66.3,29.93,North,360,0.0,0.0,74,0.00,,---,0.00,0.00,VWS V14.01,2013-07-22 04:51:00,
2013-07-22 00:56:00,75.0,66.2,29.93,North,5,0.0,0.0,74,0.00,,---,0.00,0.00,VWS V14.01,2013-07-22 04:56:00,
2013-07-22 01:01:00,75.0,66.2,29.93,North,5,0.0,0.0,74,0.00,,---,0.00,0.00,VWS V14.01,2013-07-22 05:01:00,
2013-07-22 01:06:00,75.2,66.3,29.93,North,5,0.0,0.0,74,0.00,,---,0.00,0.00,VWS V14.01,2013-07-22 05:06:00,
2013-07-22 01:11:00,75.3,66.4,29.93,North,5,0.0,0.0,74,0.00,,---,0.00,0.00,VWS V14.01,2013-07-22 05:11:00,
2013-07-22 01:16:00,75.2,66.3,29.93,North,5,0.0,0.0,74,0.00,,---,0.00,0.00,VWS V14.01,2013-07-22 05:16:00,
2013-07-22 01:21:00,74.9,66.4,29.93,North,360,0.0,0.0,75,0.00,,---,0.00,0.00,VWS V14.01,2013-07-22 05:21:00,
2013-07-22 01:26:00,75.1,66.6,29.93,North,360,0.0,0.0,75,0.00,,---,0.00,0.00,VWS V14.01,2013-07-22 05:26:00,
2013-07-22 01:31:00,75.1,66.6,29.93,North,5,0.0,0.0,75,0.00,,---,0.00,0.00,VWS V14.01,2013-07-22 05:31:00,
2013-07-22 01:36:00,75.0,66.6,29.93,NNE,13,0.0,0.0,75,0.00,,---,0.00,0.00,VWS V14.01,2013-07-22 05:36:00,
2013-07-22 01:41:00,74.8,66.7,29.92,NNE,13,0.0,0.0,76,0.00,,---,0.00,0.00,VWS V14.01,2013-07-22 05:41:00,
2013-07-22 01:46:00,74.9,66.4,29.92,NNE,13,0.0,0.0,75,0.00,,---,0.00,0.00,VWS V14.01,2013-07-22 05:46:00,
2013-07-22 01:51:00,74.8,66.7,29.92,NNE,13,0.0,0.0,76,0.00,,---,0.00,0.00,VWS V14.01,2013-07-22 05:51:00,
2013-07-22 01:56:00,75.0,66.9,29.92,NNE,13,0.0,0.0,76,0.00,,---,0.00,0.00,VWS V14.01,2013-07-22 05:56:00,
2013-07-22 02:01:00,74.8,66.7,29.92,NNE,13,0.0,0.0,76,0.00,,---,0.00,0.00,VWS V14.01,2013-07-22 06:01:00,
2013-07-22 02:06:00,74.9,66.8,29.92,NNE,13,0.0,0.0,76,0.00,,---,0.00,0.00,VWS V14.01,2013-07-22 06:06:00,
2013-07-22 02:11:00,75.0,66.6,29.91,NNE,13,0.0,0.0,75,0.00,,---,0.00,0.00,VWS V14.01,2013-07-22 06:11:00,
2013-07-22 02:16:00,74.9,66.4,29.91,NNE,13,0.0,0.0,75,0.00,,---,0.00,0.00,VWS V14.01,2013-07-22 06:16:00,
2013-07-22 02:21:00,75.1,66.6,29.91,NNE,13,0.0,0.0,75,0.00,,---,0.00,0.00,VWS V14.01,2013-07-22 06:21:00,
2013-07-22 02:26:00,75.1,66.6,29.91,NNE,13,0.0,0.0,75,0.00,,---,0.00,0.00,VWS V14.01,2013-07-22 06:26:00,
2013-07-22 02:31:00,75.3,67.2,29.91,NNE,13,0.0,0.0,76,0.00,,---,0.00,0.00,VWS V14.01,2013-07-22 06:31:00,
2013-07-22 02:36:00,75.3,66.8,29.91,NNE,13,0.0,0.0,75,0.00,,---,0.00,0.00,VWS V14.01,2013-07-22 06:36:00,
2013-07-22 02:41:00,75.2,67.1,29.91,NNE,13,0.0,0.0,76,0.00,,---,0.00,0.00,VWS V14.01,2013-07-22 06:41:00,
2013-07-22 02:46:00,75.2,67.1,29.90,North,11,0.0,0.0,76,0.00,,---,0.00,0.00,VWS V14.01,2013-07-22 06:46:00,
2013-07-22 02:51:00,75.5,67.0,29.90,North,11,0.0,0.0,75,0.00,,---,0.00,0.00,VWS V14.01,2013-07-22 06:51:00,
2013-07-22 02:56:00,75.5,67.0,29.90,North,11,0.0,0.0,75,0.00,,---,0.00,0.00,VWS V14.01,2013-07-22 06:56:00,
2013-07-22 03:01:00,75.5,67.4,29.91,North,11,0.0,0.0,76,0.00,,---,0.00,0.00,VWS V14.01,2013-07-22 07:01:00,
2013-07-22 03:06:00,75.5,67.4,29.91,North,11,0.0,0.0,76,0.00,,---,0.00,0.00,VWS V14.01,2013-07-22 07:06:00,
2013-07-22 03:10:00,75.8,67.3,29.91,North,11,0.0,0.0,75,0.00,,---,0.00,0.00,VWS V14.01,2013-07-22 07:10:00,
2013-07-22 03:15:00,75.8,66.9,29.91,North,11,0.0,0.0,74,0.00,,---,0.00,0.00,VWS V14.01,2013-07-22 07:15:00,
2013-07-22 03:20:00,76.4,67.1,29.91,North,11,0.0,0.0,73,0.00,,---,0.00,0.00,VWS V14.01,2013-07-22 07:20:00,
2013-07-22 03:25:00,76.7,67.8,29.91,North,11,0.0,0.0,74,0.00,,---,0.00,0.00,VWS V14.01,2013-07-22 07:25:00,
2013-07-22 03:30:00,76.2,67.3,29.91,North,11,0.0,0.0,74,0.00,,---,0.00,0.00,VWS V14.01,2013-07-22 07:30:00,
2013-07-22 03:35:00,75.7,66.8,29.91,North,11,0.0,0.0,74,0.00,,---,0.00,0.00,VWS V14.01,2013-07-22 07:35:00,
2013-07-22 03:40:00,75.8,67.3,29.91,North,11,0.0,0.0,75,0.00,,---,0.00,0.00,VWS V14.01,2013-07-22 07:40:00,
2013-07-22 03:45:00,75.8,66.9,29.91,North,11,0.0,0.0,74,0.00,,---,0.00,0.00,VWS V14.01,2013-07-22 07:45:00,
2013-07-22 03:50:00,76.0,67.1,29.91,North,11,0.0,0.0,74,0.00,,---,0.00,0.00,VWS V14.01,2013-07-22 07:50:00,
2013-07-22 03:55:00,76.0,67.5,29.91,North,11,0.0,0.0,75,0.00,,---,0.00,0.00,VWS V14.01,2013-07-22 07:55:00,
2013-07-22 04:00:00,76.1,67.6,29.91,North,11,0.0,0.0,75,0.00,,---,0.00,0.00,VWS V14.01,2013-07-22 08:00:00,
2013-07-22 04:05:00,75.7,67.6,29.91,North,11,0.0,0.0,76,0.00,,---,0.00,0.00,VWS V14.01,2013-07-22 08:05:00,
2013-07-22 04:10:00,75.8,67.7,29.91,North,11,0.0,0.0,76,0.00,,---,0.00,0.00,VWS V14.01,2013-07-22 08:10:00,
2013-07-22 04:15:00,75.6,67.9,29.91,North,11,0.0,0.0,77,0.00,,---,0.00,0.00,VWS V14.01,2013-07-22 08:15:00,
2013-07-22 04:20:00,75.9,67.8,29.91,North,11,0.0,0.0,76,0.00,,---,0.00,0.00,VWS V14.01,2013-07-22 08:20:00,
2013-07-22 04:25:00,75.6,67.9,29.91,North,11,0.0,0.0,77,0.00,,---,0.00,0.00,VWS V14.01,2013-07-22 08:25:00,
2013-07-22 04:30:00,75.5,67.8,29.91,North,11,0.0,0.0,77,0.00,,---,0.00,0.00,VWS V14.01,2013-07-22 08:30:00,
2013-07-22 04:35:00,75.5,67.8,29.91,North,11,0.0,0.0,77,0.00,,---,0.00,0.00,VWS V14.01,2013-07-22 08:35:00,
2013-07-22 04:40:00,75.2,67.9,29.91,North,11,0.0,0.0,78,0.00,,---,0.00,0.00,VWS V14.01,2013-07-22 08:40:00,
2013-07-22 04:45:00,74.7,67.8,29.92,North,11,0.0,0.0,79,0.00,,---,0.00,0.00,VWS V14.01,2013-07-22 08:45:00,
2013-07-22 04:50:00,74.4,67.8,29.92,North,11,0.0,0.0,80,0.00,,---,0.00,0.00,VWS V14.01,2013-07-22 08:50:00,
2013-07-22 04:55:00,74.2,67.6,29.92,North,11,0.0,0.0,80,0.00,,---,0.00,0.00,VWS V14.01,2013-07-22 08:55:00,
2013-07-22 05:00:00,74.2,67.6,29.92,North,11,0.0,0.0,80,0.00,,---,0.00,0.00,VWS V14.01,2013-07-22 09:00:00,
2013-07-22 05:05:00,74.0,67.8,29.92,North,11,0.0,0.0,81,0.00,,---,0.00,0.00,VWS V14.01,2013-07-22 09:05:00,
2013-07-22 05:10:00,74.0,67.4,29.92,North,11,0.0,0.0,80,0.00,,---,0.00,0.00,VWS V14.01,2013-07-22 09:10:00,
2013-07-22 05:15:00,74.1,67.5,29.92,North,11,0.0,0.0,80,0.00,,---,0.00,0.00,VWS V14.01,2013-07-22 09:15:00,
2013-07-22 05:20:00,74.7,67.8,29.92,North,11,0.0,0.0,79,0.00,,---,0.00,0.00,VWS V14.01,2013-07-22 09:20:00,
2013-07-22 05:25:00,74.8,67.9,29.92,North,11,0.0,0.0,79,0.00,,---,0.00,0.00,VWS V14.01,2013-07-22 09:25:00,
2013-07-22 05:30:00,74.5,67.9,29.92,North,11,0.0,0.0,80,0.00,,---,0.00,0.00,VWS V14.01,2013-07-22 09:30:00,
2013-07-22 05:36:00,74.8,67.9,29.92,North,11,0.0,0.0,79,0.00,,---,0.00,0.00,VWS V14.01,2013-07-22 09:36:00,
2013-07-22 05:41:00,75.0,67.7,29.92,North,11,0.0,0.0,78,0.00,,---,0.00,0.00,VWS V14.01,2013-07-22 09:41:00,
2013-07-22 05:46:00,75.1,67.8,29.92,North,11,0.0,0.0,78,0.00,,---,0.00,0.00,VWS V14.01,2013-07-22 09:46:00,
2013-07-22 05:51:00,75.3,68.0,29.92,North,11,0.0,0.0,78,0.00,,---,0.00,0.00,VWS V14.01,2013-07-22 09:51:00,
2013-07-22 05:56:00,75.2,68.2,29.92,North,11,0.0,0.0,79,0.00,,---,0.00,0.00,VWS V14.01,2013-07-22 09:56:00,
2013-07-22 06:00:00,75.1,68.2,29.92,North,11,0.0,0.0,79,0.00,,---,0.00,0.00,VWS V14.01,2013-07-22 10:00:00,
2013-07-22 06:05:00,75.0,68.1,29.92,NNE,14,0.0,0.0,79,0.00,,---,0.00,7.00,VWS V14.01,2013-07-22 10:05:00,
2013-07-22 06:10:00,75.1,68.5,29.92,NNE,14,0.0,0.0,80,0.00,,---,0.00,9.00,VWS V14.01,2013-07-22 10:10:00,
2013-07-22 06:15:00,75.3,68.3,29.92,NNE,14,0.0,0.0,79,0.00,,---,0.00,12.00,VWS V14.01,2013-07-22 10:15:00,
2013-07-22 06:20:00,75.2,68.2,29.92,NNE,16,0.0,0.0,79,0.00,,---,0.00,19.00,VWS V14.01,2013-07-22 10:20:00,
2013-07-22 06:25:00,75.1,68.2,29.92,NNE,20,0.0,0.0,79,0.00,,---,0.00,18.00,VWS V14.01,2013-07-22 10:25:00,
2013-07-22 06:30:00,75.2,68.2,29.92,NNE,20,0.0,0.0,79,0.00,,---,0.00,18.00,VWS V14.01,2013-07-22 10:30:00,
2013-07-22 06:35:00,75.5,68.5,29.92,NNE,20,0.0,0.0,79,0.00,,---,0.00,25.00,VWS V14.01,2013-07-22 10:35:00,
2013-07-22 06:40:00,75.5,68.9,29.92,NNE,22,0.0,0.0,80,0.00,,---,0.00,37.00,VWS V14.01,2013-07-22 10:40:00,
2013-07-22 06:45:00,75.6,69.0,29.92,NNE,22,0.0,0.0,80,0.00,,---,0.00,46.00,VWS V14.01,2013-07-22 10:45:00,
2013-07-22 06:50:00,75.9,69.3,29.92,NNE,18,0.0,0.0,80,0.00,,---,0.00,49.00,VWS V14.01,2013-07-22 10:50:00,
2013-07-22 06:55:00,75.4,68.8,29.92,NNE,16,0.0,0.0,80,0.00,,---,0.00,47.00,VWS V14.01,2013-07-22 10:55:00,
2013-07-22 07:00:00,75.2,69.0,29.92,NNE,19,0.0,0.0,81,0.00,,---,0.00,35.00,VWS V14.01,2013-07-22 11:00:00,
2013-07-22 07:05:00,75.3,68.7,29.92,NNE,28,0.0,0.0,80,0.00,,---,0.00,42.00,VWS V14.01,2013-07-22 11:05:00,
2013-07-22 07:10:00,75.5,68.9,29.92,NNE,26,0.0,0.0,80,0.00,,---,0.00,46.00,VWS V14.01,2013-07-22 11:10:00,
2013-07-22 07:15:00,75.5,68.9,29.92,NNE,28,0.0,0.0,80,0.00,,---,0.00,58.00,VWS V14.01,2013-07-22 11:15:00,
2013-07-22 07:20:00,75.4,68.8,29.92,NE,40,0.0,0.0,80,0.00,,---,0.00,97.00,VWS V14.01,2013-07-22 11:20:00,
2013-07-22 07:25:00,75.5,68.9,29.92,NE,40,0.0,0.0,80,0.00,,---,0.00,148.00,VWS V14.01,2013-07-22 11:25:00,
2013-07-22 07:30:00,75.8,68.8,29.92,NNE,31,0.0,0.0,79,0.00,,---,0.00,149.00,VWS V14.01,2013-07-22 11:30:00,
2013-07-22 07:35:00,76.2,69.2,29.92,NNE,24,0.0,0.0,79,0.00,,---,0.00,141.00,VWS V14.01,2013-07-22 11:35:00,
2013-07-22 07:40:00,76.0,69.0,29.92,NE,36,0.0,0.0,79,0.00,,---,0.00,79.00,VWS V14.01,2013-07-22 11:40:00,
2013-07-22 07:45:00,76.0,69.4,29.92,NNE,19,0.0,0.0,80,0.00,,---,0.00,65.00,VWS V14.01,2013-07-22 11:45:00,
2013-07-22 07:50:00,76.0,69.4,29.92,NE,38,0.0,0.0,80,0.00,,---,0.00,107.00,VWS V14.01,2013-07-22 11:50:00,
2013-07-22 07:55:00,76.2,69.6,29.92,NE,47,0.0,0.0,80,0.00,,---,0.00,165.00,VWS V14.01,2013-07-22 11:55:00,
2013-07-22 08:00:00,76.7,70.1,29.92,NNE,28,0.0,0.0,80,0.00,,---,0.00,250.00,VWS V14.01,2013-07-22 12:00:00,
2013-07-22 08:05:00,77.1,70.1,29.92,ENE,68,0.0,0.0,79,0.00,,---,0.00,327.00,VWS V14.01,2013-07-22 12:05:00,
2013-07-22 08:10:00,77.3,70.3,29.92,ESE,102,0.0,0.0,79,0.00,,---,0.00,234.00,VWS V14.01,2013-07-22 12:10:00,
2013-07-22 08:15:00,77.5,70.5,29.92,NE,34,0.0,0.0,79,0.00,,---,0.00,330.00,VWS V14.01,2013-07-22 12:15:00,
2013-07-22 08:20:00,77.6,70.6,29.92,ENE,70,0.0,0.0,79,0.00,,---,0.00,297.00,VWS V14.01,2013-07-22 12:20:00,
2013-07-22 08:25:00,78.5,71.1,29.93,NNE,33,0.0,0.0,78,0.00,,---,0.00,438.00,VWS V14.01,2013-07-22 12:25:00,
2013-07-22 08:30:00,79.0,71.2,29.93,NE,39,0.0,0.0,77,0.00,,---,0.00,241.00,VWS V14.01,2013-07-22 12:30:00,
2013-07-22 08:35:00,78.5,71.1,29.92,ESE,121,0.0,0.0,78,0.00,,---,0.00,285.00,VWS V14.01,2013-07-22 12:35:00,
2013-07-22 08:40:00,79.1,71.3,29.92,NE,36,0.0,0.0,77,0.00,,---,0.00,269.00,VWS V14.01,2013-07-22 12:40:00,
2013-07-22 08:45:00,79.2,71.0,29.92,ENE,63,0.0,0.0,76,0.00,,---,0.00,211.00,VWS V14.01,2013-07-22 12:45:00,
2013-07-22 08:50:00,78.2,70.8,29.92,ESE,107,0.0,0.0,78,0.00,,---,0.00,213.00,VWS V14.01,2013-07-22 12:50:00,
2013-07-22 08:55:00,78.3,71.3,29.92,NE,36,0.0,0.0,79,0.00,,---,0.00,253.00,VWS V14.01,2013-07-22 12:55:00,
2013-07-22 09:00:00,78.9,71.1,29.92,NE,40,0.0,0.0,77,0.00,,---,0.00,283.00,VWS V14.01,2013-07-22 13:00:00,
2013-07-22 09:05:00,79.7,71.5,29.92,NNE,32,0.0,0.0,76,0.00,,---,0.00,214.00,VWS V14.01,2013-07-22 13:05:00,
2013-07-22 09:10:00,79.0,71.2,29.92,ESE,114,0.0,0.0,77,0.00,,---,0.00,171.00,VWS V14.01,2013-07-22 13:10:00,
2013-07-22 09:15:00,78.8,71.0,29.92,ENE,59,0.0,0.0,77,0.00,,---,0.00,149.00,VWS V14.01,2013-07-22 13:15:00,
2013-07-22 09:20:00,79.2,71.0,29.92,East,101,0.0,0.0,76,0.00,,---,0.00,218.00,VWS V14.01,2013-07-22 13:20:00,
2013-07-22 09:25:00,78.8,71.0,29.92,ESE,111,0.0,0.0,77,0.00,,---,0.00,200.00,VWS V14.01,2013-07-22 13:25:00,
2013-07-22 09:30:00,78.5,70.7,29.92,East,97,0.0,0.0,77,0.00,,---,0.00,153.00,VWS V14.01,2013-07-22 13:30:00,
2013-07-22 09:35:00,79.1,70.9,29.92,NE,35,0.0,0.0,76,0.00,,---,0.00,139.00,VWS V14.01,2013-07-22 13:35:00,
2013-07-22 09:40:00,78.8,71.0,29.92,ESE,111,0.0,0.0,77,0.00,,---,0.00,171.00,VWS V14.01,2013-07-22 13:40:00,
2013-07-22 09:45:00,79.3,71.1,29.92,SE,130,0.0,0.0,76,0.00,,---,0.00,162.00,VWS V14.01,2013-07-22 13:45:00,
2013-07-22 09:50:00,79.2,71.0,29.92,ESE,104,0.0,0.0,76,0.00,,---,0.00,193.00,VWS V14.01,2013-07-22 13:50:00,
2013-07-22 09:55:00,79.2,71.0,29.92,SE,146,0.0,0.0,76,0.00,,---,0.00,431.00,VWS V14.01,2013-07-22 13:55:00,
2013-07-22 10:00:00,79.6,71.0,29.93,SSE,156,0.0,0.0,75,0.00,,---,0.00,388.00,VWS V14.01,2013-07-22 14:00:00,
2013-07-22 10:05:00,79.4,70.8,29.92,SW,227,0.0,0.0,75,0.00,,---,0.00,350.00,VWS V14.01,2013-07-22 14:05:00,
2013-07-22 10:10:00,80.5,71.1,29.92,ESE,114,0.0,0.0,73,0.00,,---,0.00,381.00,VWS V14.01,2013-07-22 14:10:00,
2013-07-22 10:15:00,80.0,70.6,29.92,ESE,109,0.0,0.0,73,0.00,,---,0.00,580.00,VWS V14.01,2013-07-22 14:15:00,
2013-07-22 10:20:00,81.0,71.1,29.92,SE,135,0.0,0.0,72,0.00,,---,0.00,455.00,VWS V14.01,2013-07-22 14:20:00,
2013-07-22 10:25:00,81.1,71.2,29.92,NNE,31,0.0,0.0,72,0.00,,---,0.00,446.00,VWS V14.01,2013-07-22 14:25:00,
2013-07-22 10:30:00,81.3,71.0,29.92,NNE,20,0.0,0.0,71,0.00,,---,0.00,591.00,VWS V14.01,2013-07-22 14:30:00,
2013-07-22 10:35:00,81.7,71.0,29.92,ESE,102,0.0,0.0,70,0.00,,---,0.00,399.00,VWS V14.01,2013-07-22 14:35:00,
2013-07-22 10:40:00,80.5,70.2,29.92,SSW,205,0.0,0.0,71,0.00,,---,0.00,545.00,VWS V14.01,2013-07-22 14:40:00,
2013-07-22 10:45:00,81.3,71.0,29.92,North,5,0.0,0.0,71,0.00,,---,0.00,780.00,VWS V14.01,2013-07-22 14:45:00,
2013-07-22 10:50:00,82.7,71.9,29.92,East,84,0.0,0.0,70,0.00,,---,0.00,415.00,VWS V14.01,2013-07-22 14:50:00,
2013-07-22 10:55:00,81.1,71.2,29.92,SSE,155,0.0,0.0,72,0.00,,---,0.00,350.00,VWS V14.01,2013-07-22 14:55:00,
2013-07-22 11:00:00,80.9,71.4,29.92,South,178,0.0,0.0,73,0.00,,---,0.00,399.00,VWS V14.01,2013-07-22 15:00:00,
2013-07-22 11:05:00,81.3,71.4,29.92,SSE,149,0.0,0.0,72,0.00,,---,0.00,279.00,VWS V14.01,2013-07-22 15:05:00,
2013-07-22 11:10:00,81.5,71.6,29.92,East,101,0.0,0.0,72,0.00,,---,0.00,271.00,VWS V14.01,2013-07-22 15:10:00,
2013-07-22 11:15:00,81.7,71.8,29.92,ENE,69,0.0,0.0,72,0.00,,---,0.00,294.00,VWS V14.01,2013-07-22 15:15:00,
2013-07-22 11:20:00,81.5,72.0,29.92,ENE,67,0.0,0.0,73,0.00,,---,0.00,339.00,VWS V14.01,2013-07-22 15:20:00,
2013-07-22 11:25:00,81.7,71.8,29.92,NNW,345,0.0,0.0,72,0.00,,---,0.00,316.00,VWS V14.01,2013-07-22 15:25:00,
2013-07-22 11:30:00,81.8,71.9,29.92,SSW,205,0.0,0.0,72,0.00,,---,0.00,295.00,VWS V14.01,2013-07-22 15:30:00,
2013-07-22 11:35:00,81.3,71.4,29.92,ESE,114,0.0,0.0,72,0.00,,---,0.00,214.00,VWS V14.01,2013-07-22 15:35:00,
2013-07-22 11:40:00,80.8,71.7,29.92,NE,46,0.0,0.0,74,0.00,,---,0.00,220.00,VWS V14.01,2013-07-22 15:40:00,
2013-07-22 11:45:00,81.5,71.6,29.92,SE,126,0.0,0.0,72,0.00,,---,0.00,267.00,VWS V14.01,2013-07-22 15:45:00,
2013-07-22 11:50:00,82.0,72.1,29.92,SE,142,0.0,0.0,72,0.00,,---,0.00,234.00,VWS V14.01,2013-07-22 15:50:00,
2013-07-22 11:55:00,81.5,71.6,29.92,SE,130,0.0,0.0,72,0.00,,---,0.00,388.00,VWS V14.01,2013-07-22 15:55:00,
2013-07-22 12:00:00,82.3,72.4,29.91,SW,218,0.0,0.0,72,0.00,,---,0.00,406.00,VWS V14.01,2013-07-22 16:00:00,
2013-07-22 12:05:00,82.5,72.2,29.91,SSE,159,0.0,0.0,71,0.00,,---,0.00,457.00,VWS V14.01,2013-07-22 16:05:00,
2013-07-22 12:10:00,82.6,72.7,29.91,SW,216,0.0,0.0,72,0.00,,---,0.00,396.00,VWS V14.01,2013-07-22 16:10:00,
2013-07-22 12:15:00,82.9,72.5,29.91,WSW,250,0.0,0.0,71,0.00,,---,0.00,246.00,VWS V14.01,2013-07-22 16:15:00,
2013-07-22 12:20:00,82.7,72.3,29.90,East,92,0.0,0.0,71,0.00,,---,0.00,290.00,VWS V14.01,2013-07-22 16:20:00,
2013-07-22 12:25:00,82.6,72.2,29.90,WSW,248,0.0,0.0,71,0.00,,---,0.00,494.00,VWS V14.01,2013-07-22 16:25:00,
2013-07-22 12:30:00,82.2,71.4,29.90,South,190,0.0,0.0,70,0.00,,---,0.00,318.00,VWS V14.01,2013-07-22 16:30:00,
2013-07-22 12:35:00,82.7,71.9,29.90,WSW,240,0.0,0.0,70,0.00,,---,0.00,478.00,VWS V14.01,2013-07-22 16:35:00,
2013-07-22 12:40:00,83.0,71.8,29.90,SSW,200,0.0,0.0,69,0.00,,---,0.00,443.00,VWS V14.01,2013-07-22 16:40:00,
2013-07-22 12:45:00,83.6,72.4,29.89,SE,144,0.0,0.0,69,0.00,,---,0.00,990.00,VWS V14.01,2013-07-22 16:45:00,
2013-07-22 12:50:00,83.2,71.6,29.89,East,88,0.0,0.0,68,0.00,,---,0.00,986.00,VWS V14.01,2013-07-22 16:50:00,
2013-07-22 12:55:00,84.2,71.6,29.89,SE,131,0.0,0.0,66,0.00,,---,0.00,856.00,VWS V14.01,2013-07-22 16:55:00,
2013-07-22 13:00:00,84.2,72.1,29.89,WNW,302,0.0,0.0,67,0.00,,---,0.00,1051.00,VWS V14.01,2013-07-22 17:00:00,
2013-07-22 13:05:00,84.7,71.2,29.89,SSE,154,0.0,0.0,64,0.00,,---,0.00,1032.00,VWS V14.01,2013-07-22 17:05:00,
2013-07-22 13:10:00,84.5,71.0,29.89,East,97,0.0,0.0,64,0.00,,---,0.00,392.00,VWS V14.01,2013-07-22 17:10:00,
2013-07-22 13:15:00,84.1,71.1,29.89,ENE,59,0.0,0.0,65,0.00,,---,0.00,420.00,VWS V14.01,2013-07-22 17:15:00,
2013-07-22 13:20:00,84.0,71.0,29.89,ENE,78,0.0,0.0,65,0.00,,---,0.00,355.00,VWS V14.01,2013-07-22 17:20:00,
2013-07-22 13:25:00,84.2,71.2,29.88,West,273,0.0,0.0,65,0.00,,---,0.00,478.00,VWS V14.01,2013-07-22 17:25:00,
2013-07-22 13:30:00,84.1,70.6,29.88,ESE,120,0.0,0.0,64,0.00,,---,0.00,422.00,VWS V14.01,2013-07-22 17:30:00,
2013-07-22 13:35:00,84.1,70.6,29.88,ESE,119,0.0,0.0,64,0.00,,---,0.00,462.00,VWS V14.01,2013-07-22 17:35:00,
2013-07-22 13:40:00,84.1,71.1,29.88,NE,44,0.0,0.0,65,0.00,,---,0.00,707.00,VWS V14.01,2013-07-22 17:40:00,
2013-07-22 13:45:00,84.4,71.4,29.87,East,92,0.0,0.0,65,0.00,,---,0.00,304.00,VWS V14.01,2013-07-22 17:45:00,
2013-07-22 13:50:00,84.8,71.3,29.88,SSE,153,0.0,0.0,64,0.00,,---,0.00,360.00,VWS V14.01,2013-07-22 17:50:00,
2013-07-22 13:55:00,84.4,70.9,29.87,East,82,0.0,0.0,64,0.00,,---,0.00,385.00,VWS V14.01,2013-07-22 17:55:00,
2013-07-22 14:00:00,84.3,71.3,29.87,SSE,161,0.0,0.0,65,0.00,,---,0.00,998.00,VWS V14.01,2013-07-22 18:00:00,
2013-07-22 14:05:00,84.7,71.6,29.87,East,94,0.0,0.0,65,0.00,,---,0.00,295.00,VWS V14.01,2013-07-22 18:05:00,
2013-07-22 14:10:00,85.0,71.9,29.86,SE,143,0.0,0.0,65,0.00,,---,0.00,981.00,VWS V14.01,2013-07-22 18:10:00,
2013-07-22 14:16:00,84.8,71.7,29.86,ESE,111,0.0,0.0,65,0.00,,---,0.00,605.00,VWS V14.01,2013-07-22 18:16:00,
2013-07-22 14:21:00,84.2,71.6,29.86,SSE,149,0.0,0.0,66,0.00,,---,0.00,265.00,VWS V14.01,2013-07-22 18:21:00,
2013-07-22 14:26:00,83.8,72.1,29.86,ESE,117,0.0,0.0,68,0.00,,---,0.00,619.00,VWS V14.01,2013-07-22 18:26:00,
2013-07-22 14:31:00,84.5,72.3,29.86,ESE,105,0.0,0.0,67,0.00,,---,0.00,376.00,VWS V14.01,2013-07-22 18:31:00,
2013-07-22 14:36:00,84.7,72.5,29.86,SSW,200,0.0,0.0,67,0.00,,---,0.00,281.00,VWS V14.01,2013-07-22 18:36:00,
2013-07-22 14:41:00,84.6,72.4,29.86,SE,132,0.0,0.0,67,0.00,,---,0.00,218.00,VWS V14.01,2013-07-22 18:41:00,
2013-07-22 14:47:00,84.3,72.2,29.86,NE,43,0.0,0.0,67,0.00,,---,0.00,167.00,VWS V14.01,2013-07-22 18:47:00,
2013-07-22 14:52:00,84.1,72.0,29.86,East,98,0.0,0.0,67,0.00,,---,0.00,174.00,VWS V14.01,2013-07-22 18:52:00,
2013-07-22 14:57:00,83.9,72.2,29.85,SE,139,0.0,0.0,68,0.00,,---,0.00,359.00,VWS V14.01,2013-07-22 18:57:00,
2013-07-22 15:02:00,83.5,71.4,29.85,SE,132,0.0,0.0,67,0.00,,---,0.00,241.00,VWS V14.01,2013-07-22 19:02:00,
2013-07-22 15:07:00,83.3,70.8,29.85,ESE,109,0.0,0.0,66,0.00,,---,0.00,213.00,VWS V14.01,2013-07-22 19:07:00,
2013-07-22 15:12:00,83.4,70.9,29.85,ESE,104,0.0,0.0,66,0.00,,---,0.00,188.00,VWS V14.01,2013-07-22 19:12:00,
2013-07-22 15:17:00,82.9,71.3,29.85,ESE,115,0.0,0.0,68,0.00,,---,0.00,174.00,VWS V14.01,2013-07-22 19:17:00,
2013-07-22 15:22:00,83.1,71.4,29.85,SSE,157,0.0,0.0,68,0.00,,---,0.00,149.00,VWS V14.01,2013-07-22 19:22:00,
2013-07-22 15:28:00,82.7,71.1,29.84,ESE,117,0.0,0.0,68,0.00,,---,0.00,134.00,VWS V14.01,2013-07-22 19:28:00,
2013-07-22 15:33:00,82.4,71.2,29.84,SE,130,0.0,0.0,69,0.00,,---,0.00,114.00,VWS V14.01,2013-07-22 19:33:00,
2013-07-22 15:38:00,82.3,71.5,29.84,ESE,114,0.0,0.0,70,0.00,,---,0.00,100.00,VWS V14.01,2013-07-22 19:38:00,
2013-07-22 15:43:00,82.1,71.8,29.83,SSE,155,0.0,0.0,71,0.00,,---,0.00,102.00,VWS V14.01,2013-07-22 19:43:00,
2013-07-22 15:48:00,81.8,71.9,29.83,SSE,157,0.0,0.0,72,0.00,,---,0.00,120.00,VWS V14.01,2013-07-22 19:48:00,
2013-07-22 15:53:00,81.5,71.6,29.83,SE,129,0.0,0.0,72,0.00,,---,0.00,144.00,VWS V14.01,2013-07-22 19:53:00,
2013-07-22 15:58:00,81.6,71.7,29.83,SE,133,0.0,0.0,72,0.00,,---,0.00,165.00,VWS V14.01,2013-07-22 19:58:00,
2013-07-22 16:03:00,81.5,71.6,29.83,SSE,155,0.0,0.0,72,0.00,,---,0.00,183.00,VWS V14.01,2013-07-22 20:03:00,
2013-07-22 16:09:00,81.9,72.4,29.84,ESE,109,0.0,0.0,73,0.00,,---,0.00,169.00,VWS V14.01,2013-07-22 20:09:00,
2013-07-22 16:14:00,81.6,72.9,29.84,SW,234,0.0,0.0,75,0.00,,---,0.00,127.00,VWS V14.01,2013-07-22 20:14:00,
2013-07-22 16:16:00,81.8,72.7,29.84,SSE,150,0.0,0.0,74,0.00,,---,0.00,123.00,VWS V14.01,2013-07-22 20:16:00,
2013-07-22 16:17:00,81.7,72.6,29.84,ESE,122,0.0,0.0,74,0.00,,---,0.00,123.00,VWS V14.01,2013-07-22 20:17:00,
2013-07-22 16:22:00,81.1,72.4,29.83,SSE,155,0.0,0.0,75,0.00,,---,0.00,127.00,VWS V14.01,2013-07-22 20:22:00,
2013-07-22 16:27:00,80.9,72.6,29.83,East,89,0.0,0.0,76,0.00,,---,0.00,149.00,VWS V14.01,2013-07-22 20:27:00,
2013-07-22 16:32:00,81.1,72.8,29.83,East,93,0.0,0.0,76,0.00,,---,0.00,163.00,VWS V14.01,2013-07-22 20:32:00,
2013-07-22 16:37:00,80.8,72.5,29.83,ENE,68,0.0,0.0,76,0.00,,---,0.00,186.00,VWS V14.01,2013-07-22 20:37:00,
2013-07-22 16:42:00,80.6,72.7,29.83,ESE,111,0.0,0.0,77,0.00,,---,0.00,265.00,VWS V14.01,2013-07-22 20:42:00,
2013-07-22 16:43:00,80.6,72.7,29.83,ESE,117,0.0,0.0,77,0.00,,---,0.00,283.00,VWS V14.01,2013-07-22 20:43:00,
2013-07-22 16:48:00,80.5,73.0,29.83,ESE,105,0.0,0.0,78,0.00,,---,0.00,306.00,VWS V14.01,2013-07-22 20:48:00,
2013-07-22 16:53:00,80.9,73.4,29.83,ESE,108,0.0,0.0,78,0.00,,---,0.00,153.00,VWS V14.01,2013-07-22 20:53:00,
2013-07-22 16:58:00,80.9,73.4,29.84,SSE,148,0.0,0.0,78,0.00,,---,0.00,113.00,VWS V14.01,2013-07-22 20:58:00,
2013-07-22 17:03:00,80.9,73.8,29.84,ESE,105,0.0,0.0,79,0.00,,---,0.00,171.00,VWS V14.01,2013-07-22 21:03:00,
2013-07-22 17:08:00,80.4,73.3,29.83,SE,130,0.0,0.0,79,0.00,,---,0.00,167.00,VWS V14.01,2013-07-22 21:08:00,
2013-07-22 17:13:00,80.2,73.1,29.83,SE,144,0.0,0.0,79,0.00,,---,0.00,158.00,VWS V14.01,2013-07-22 21:13:00,
2013-07-22 17:18:00,80.0,72.9,29.83,ESE,116,0.0,0.0,79,0.00,,---,0.00,123.00,VWS V14.01,2013-07-22 21:18:00,
2013-07-22 17:23:00,79.8,73.1,29.83,SSE,148,0.0,0.0,80,0.00,,---,0.00,105.00,VWS V14.01,2013-07-22 21:23:00,
2013-07-22 17:28:00,79.5,73.2,29.83,SSE,148,0.0,0.0,81,0.00,,---,0.00,104.00,VWS V14.01,2013-07-22 21:28:00,
2013-07-22 17:33:00,79.6,73.6,29.82,ESE,118,0.0,0.0,82,0.00,,---,0.00,125.00,VWS V14.01,2013-07-22 21:33:00,
2013-07-22 17:38:00,79.3,73.0,29.82,ESE,121,0.0,0.0,81,0.00,,---,0.00,109.00,VWS V14.01,2013-07-22 21:38:00,
2013-07-22 17:43:00,79.0,73.4,29.82,ESE,117,0.0,0.0,83,0.00,,---,0.00,72.00,VWS V14.01,2013-07-22 21:43:00,
2013-07-22 17:48:00,78.5,73.3,29.81,SE,143,0.0,0.0,84,0.00,,---,0.00,47.00,VWS V14.01,2013-07-22 21:48:00,
2013-07-22 17:53:00,78.0,73.5,29.82,SE,144,0.0,0.0,86,0.00,,---,0.00,30.00,VWS V14.01,2013-07-22 21:53:00,
2013-07-22 17:58:00,77.7,73.2,29.82,ESE,111,0.0,0.0,86,0.00,,---,0.00,25.00,VWS V14.01,2013-07-22 21:58:00,
2013-07-22 18:03:00,77.5,73.7,29.82,SSE,153,0.0,0.0,88,0.00,,---,0.00,26.00,VWS V14.01,2013-07-22 22:03:00,
2013-07-22 18:08:00,77.3,73.5,29.82,SSE,147,0.0,0.0,88,0.00,,---,0.00,23.00,VWS V14.01,2013-07-22 22:08:00,
2013-07-22 18:13:00,77.1,73.3,29.82,SE,136,0.0,0.0,88,0.00,,---,0.00,23.00,VWS V14.01,2013-07-22 22:13:00,
2013-07-22 18:18:00,77.1,73.6,29.82,ESE,118,0.0,0.0,89,0.00,,---,0.00,19.00,VWS V14.01,2013-07-22 22:18:00,
2013-07-22 18:23:00,77.0,73.5,29.82,ESE,113,0.0,0.0,89,0.00,,---,0.00,12.00,VWS V14.01,2013-07-22 22:23:00,
2013-07-22 18:28:00,77.1,73.9,29.82,ESE,103,0.0,0.0,90,0.00,,---,0.00,7.00,VWS V14.01,2013-07-22 22:28:00,
2013-07-22 18:33:00,76.9,73.8,29.82,ESE,119,0.0,0.0,90,0.01,,---,0.01,7.00,VWS V14.01,2013-07-22 22:33:00,
2013-07-22 18:38:00,76.8,73.7,29.82,SE,145,0.0,0.0,90,0.01,,---,0.01,5.00,VWS V14.01,2013-07-22 22:38:00,
2013-07-22 18:43:00,76.9,74.1,29.82,SE,126,0.0,0.0,91,0.01,,---,0.01,9.00,VWS V14.01,2013-07-22 22:43:00,
2013-07-22 18:48:00,76.9,73.8,29.82,ESE,115,0.0,0.0,90,0.01,,---,0.01,9.00,VWS V14.01,2013-07-22 22:48:00,
2013-07-22 18:53:00,77.0,74.2,29.82,East,90,0.0,0.0,91,0.01,,---,0.01,5.00,VWS V14.01,2013-07-22 22:53:00,
2013-07-22 18:58:00,77.0,73.8,29.82,SSE,148,0.0,0.0,90,0.01,,---,0.01,0.00,VWS V14.01,2013-07-22 22:58:00,
2013-07-22 19:03:00,76.8,74.0,29.82,East,101,0.0,0.0,91,0.01,,---,0.01,5.00,VWS V14.01,2013-07-22 23:03:00,
2013-07-22 19:08:00,76.8,74.0,29.82,ESE,118,0.0,0.0,91,0.01,,---,0.01,9.00,VWS V14.01,2013-07-22 23:08:00,
2013-07-22 19:13:00,76.9,74.1,29.82,ESE,121,0.0,0.0,91,0.01,,---,0.01,16.00,VWS V14.01,2013-07-22 23:13:00,
2013-07-22 19:18:00,76.9,74.1,29.82,SE,142,0.0,0.0,91,0.02,,---,0.02,12.00,VWS V14.01,2013-07-22 23:18:00,
2013-07-22 19:23:00,76.9,74.1,29.82,ESE,120,0.0,0.0,91,0.02,,---,0.02,7.00,VWS V14.01,2013-07-22 23:23:00,
2013-07-22 19:28:00,76.9,74.1,29.82,SE,132,0.0,0.0,91,0.02,,---,0.02,9.00,VWS V14.01,2013-07-22 23:28:00,
2013-07-22 19:33:00,76.7,74.2,29.82,East,96,0.0,0.0,92,0.02,,---,0.02,7.00,VWS V14.01,2013-07-22 23:33:00,
2013-07-22 19:38:00,76.5,74.0,29.82,ESE,103,0.0,0.0,92,0.02,,---,0.02,7.00,VWS V14.01,2013-07-22 23:38:00,
2013-07-22 19:43:00,76.6,74.1,29.82,East,86,0.0,0.0,92,0.01,,---,0.02,5.00,VWS V14.01,2013-07-22 23:43:00,
2013-07-22 19:48:00,76.7,74.2,29.82,SE,144,0.0,0.0,92,0.01,,---,0.02,0.00,VWS V14.01,2013-07-22 23:48:00,
2013-07-22 19:53:00,76.7,74.2,29.82,ESE,107,0.0,0.0,92,0.01,,---,0.02,0.00,VWS V14.01,2013-07-22 23:53:00,
2013-07-22 19:58:00,76.6,74.1,29.82,SSE,156,0.0,0.0,92,0.01,,---,0.02,0.00,VWS V14.01,2013-07-22 23:58:00,
2013-07-22 20:03:00,76.4,74.2,29.81,SSE,159,0.0,0.0,93,0.01,,---,0.02,0.00,VWS V14.01,2013-07-23 00:03:00,
2013-07-22 20:08:00,76.6,74.4,29.81,ESE,115,0.0,0.0,93,0.01,,---,0.02,0.00,VWS V14.01,2013-07-23 00:08:00,
2013-07-22 20:13:00,76.5,74.3,29.81,ESE,121,0.0,0.0,93,0.01,,---,0.02,0.00,VWS V14.01,2013-07-23 00:13:00,
2013-07-22 20:18:00,76.4,74.2,29.81,ESE,116,0.0,0.0,93,0.01,,---,0.02,0.00,VWS V14.01,2013-07-23 00:18:00,
2013-07-22 20:23:00,76.3,74.1,29.81,ESE,103,0.0,0.0,93,0.00,,---,0.02,0.00,VWS V14.01,2013-07-23 00:23:00,
2013-07-22 20:28:00,76.5,74.7,29.81,ESE,111,0.0,0.0,94,0.00,,---,0.02,0.00,VWS V14.01,2013-07-23 00:28:00,
2013-07-22 20:33:00,76.4,74.2,29.81,SE,136,0.0,0.0,93,0.01,,---,0.03,0.00,VWS V14.01,2013-07-23 00:33:00,
2013-07-22 20:38:00,76.2,74.0,29.81,ESE,107,0.0,0.0,93,0.01,,---,0.03,0.00,VWS V14.01,2013-07-23 00:38:00,
2013-07-22 20:43:00,76.3,74.1,29.81,SSE,163,0.0,0.0,93,0.01,,---,0.03,0.00,VWS V14.01,2013-07-23 00:43:00,
2013-07-22 20:48:00,76.4,74.2,29.81,SE,138,0.0,0.0,93,0.01,,---,0.03,0.00,VWS V14.01,2013-07-23 00:48:00,
2013-07-22 20:53:00,76.5,74.3,29.81,SE,134,0.0,0.0,93,0.02,,---,0.04,0.00,VWS V14.01,2013-07-23 00:53:00,
2013-07-22 20:58:00,76.3,74.1,29.81,SE,142,0.0,0.0,93,0.03,,---,0.05,0.00,VWS V14.01,2013-07-23 00:58:00,
2013-07-22 21:03:00,76.2,74.3,29.81,East,100,0.0,0.0,94,0.03,,---,0.05,0.00,VWS V14.01,2013-07-23 01:03:00,
2013-07-22 21:08:00,76.3,74.4,29.81,SE,146,0.0,0.0,94,0.04,,---,0.06,0.00,VWS V14.01,2013-07-23 01:08:00,
2013-07-22 21:13:00,76.4,74.6,29.81,SW,217,0.0,0.0,94,0.05,,---,0.07,0.00,VWS V14.01,2013-07-23 01:13:00,
2013-07-22 21:18:00,76.4,74.6,29.81,SW,219,0.0,0.0,94,0.06,,---,0.08,0.00,VWS V14.01,2013-07-23 01:18:00,
2013-07-22 21:23:00,76.3,74.4,29.81,SW,225,0.0,0.0,94,0.07,,---,0.09,0.00,VWS V14.01,2013-07-23 01:23:00,
2013-07-22 21:28:00,76.2,74.3,29.81,SSW,206,0.0,0.0,94,0.08,,---,0.10,0.00,VWS V14.01,2013-07-23 01:28:00,
2013-07-22 21:33:00,76.1,74.2,29.81,WSW,244,0.0,0.0,94,0.10,,---,0.12,0.00,VWS V14.01,2013-07-23 01:33:00,
2013-07-22 21:38:00,76.1,74.2,29.81,SSE,162,0.0,0.0,94,0.12,,---,0.14,0.00,VWS V14.01,2013-07-23 01:38:00,
2013-07-22 21:43:00,75.8,73.6,29.80,South,173,0.0,0.0,93,0.13,,---,0.16,0.00,VWS V14.01,2013-07-23 01:43:00,
2013-07-22 21:48:00,75.6,73.8,29.80,SW,215,0.0,0.0,94,0.14,,---,0.17,0.00,VWS V14.01,2013-07-23 01:48:00,
2013-07-22 21:53:00,75.5,73.7,29.80,SW,218,0.0,0.0,94,0.13,,---,0.17,0.00,VWS V14.01,2013-07-23 01:53:00,
2013-07-22 21:58:00,75.6,73.8,29.80,SSW,211,0.0,0.0,94,0.14,,---,0.18,0.00,VWS V14.01,2013-07-23 01:58:00,
2013-07-22 22:03:00,75.6,73.8,29.79,SSE,151,0.0,0.0,94,0.13,,---,0.18,0.00,VWS V14.01,2013-07-23 02:03:00,
2013-07-22 22:08:00,75.5,73.7,29.80,SE,138,0.0,0.0,94,0.13,,---,0.18,0.00,VWS V14.01,2013-07-23 02:08:00,
2013-07-22 22:13:00,75.4,73.6,29.80,SE,141,0.0,0.0,94,0.12,,---,0.18,0.00,VWS V14.01,2013-07-23 02:13:00,
2013-07-22 22:18:00,75.2,73.4,29.80,SSE,151,0.0,0.0,94,0.13,,---,0.19,0.00,VWS V14.01,2013-07-23 02:18:00,
2013-07-22 22:23:00,75.0,73.2,29.80,SE,133,0.0,0.0,94,0.11,,---,0.19,0.00,VWS V14.01,2013-07-23 02:23:00,
2013-07-22 22:28:00,75.0,73.2,29.80,SW,234,0.0,0.0,94,0.11,,---,0.19,0.00,VWS V14.01,2013-07-23 02:28:00,
2013-07-22 22:33:00,75.0,73.2,29.80,SW,234,0.0,0.0,94,0.09,,---,0.19,0.00,VWS V14.01,2013-07-23 02:33:00,
2013-07-22 22:38:00,75.2,73.4,29.80,SW,234,0.0,0.0,94,0.09,,---,0.19,0.00,VWS V14.01,2013-07-23 02:38:00,
2013-07-22 22:43:00,75.2,73.4,29.80,SW,234,0.0,0.0,94,0.05,,---,0.19,0.00,VWS V14.01,2013-07-23 02:43:00,
2013-07-22 22:48:00,75.5,73.7,29.80,SSE,153,0.0,0.0,94,0.05,,---,0.19,0.00,VWS V14.01,2013-07-23 02:48:00,
2013-07-22 22:53:00,75.5,73.7,29.80,ESE,103,0.0,0.0,94,0.02,,---,0.19,0.00,VWS V14.01,2013-07-23 02:53:00,
2013-07-22 22:58:00,75.5,73.7,29.80,ESE,103,0.0,0.0,94,0.03,,---,0.20,0.00,VWS V14.01,2013-07-23 02:58:00,
2013-07-22 23:03:00,75.7,73.8,29.79,ESE,103,0.0,0.0,94,0.02,,---,0.20,0.00,VWS V14.01,2013-07-23 03:03:00,
2013-07-22 23:08:00,75.4,73.6,29.79,East,92,0.0,0.0,94,0.02,,---,0.20,0.00,VWS V14.01,2013-07-23 03:08:00,
2013-07-22 23:13:00,75.6,73.8,29.79,East,92,0.0,0.0,94,0.02,,---,0.20,0.00,VWS V14.01,2013-07-23 03:13:00,
2013-07-22 23:18:00,75.7,73.8,29.79,East,92,0.0,0.0,94,0.02,,---,0.20,0.00,VWS V14.01,2013-07-23 03:18:00,
2013-07-22 23:23:00,76.0,74.2,29.78,East,92,0.0,0.0,94,0.01,,---,0.20,0.00,VWS V14.01,2013-07-23 03:23:00,
2013-07-22 23:28:00,75.9,73.7,29.78,ESE,106,0.0,0.0,93,0.01,,---,0.20,0.00,VWS V14.01,2013-07-23 03:28:00,
2013-07-22 23:33:00,75.7,73.8,29.78,ESE,106,0.0,0.0,94,0.01,,---,0.20,0.00,VWS V14.01,2013-07-23 03:33:00,
2013-07-22 23:38:00,75.6,73.8,29.78,ESE,106,0.0,0.0,94,0.01,,---,0.20,0.00,VWS V14.01,2013-07-23 03:38:00,
2013-07-22 23:43:00,75.7,73.8,29.78,East,100,0.0,0.0,94,0.01,,---,0.20,0.00,VWS V14.01,2013-07-23 03:43:00,
2013-07-22 23:48:00,75.8,74.3,29.78,East,100,0.0,0.0,95,0.01,,---,0.20,0.00,VWS V14.01,2013-07-23 03:48:00,
2013-07-22 23:53:00,76.2,74.3,29.78,East,100,0.0,0.0,94,0.01,,---,0.20,0.00,VWS V14.01,2013-07-23 03:53:00,
2013-07-22 23:58:00,76.0,74.2,29.78,East,100,0.0,0.0,94,0.01,,---,0.20,0.00,VWS V14.01,2013-07-23 03:58:00,